User: anonymous   Login
Location: Eaton Estates
(41.3089°N, 82.0057°W)
Time: 02:45:40
(UTC+00:00)
Language:

Lacrosse 5 rocket - Orbit

View from above orbital plane
View from above orbital plane
View from above satellite
View from above satellite

Ground track
Ground track

The orbit data is extracted from the following two-line orbital elements,

1 28647U 05016B   21260.49552061  .00000270  00000-0  33719-4 0  9998
2 28647  56.9975 181.0713 0118763 247.4858 111.3573 15.06565894128826
Epoch (UTC): 17 September 2021 11:53:32
Eccentricity: 0.0118763
inclination: 56.9975°
perigee height: 464 km
apogee height: 629 km
right ascension of ascending node: 181.0713°
argument of perigee: 247.4858°
revolutions per day: 15.06565894
mean anomaly at epoch: 111.3573°
orbit number at epoch: 12882

The dashed part of the orbit path shows where the satellite is in the earth's shadow,  

DLR